This is the latest recevied weather packets stored in our database for station/object 9W8AKN-13. If no packets are shown the sender has not sent any weather packets the latest 10 day(s).
| Time | Temp. | Humidity | Pressure | Rain* | Wind** | Luminosity | Snow |
|---|---|---|---|---|---|---|---|
| 1787382450 | 31.11° C | 67% | 1008.2 hPa | - | - | - | - |
| 1787381548 | 31.11° C | 66% | 1008.2 hPa | - | - | - | - |
| 1787380648 | 31.11° C | 66% | 1008.5 hPa | - | - | - | - |
| 1787379748 | 31.11° C | 65% | 1008.4 hPa | - | - | - | - |
| 1787378848 | 31.11° C | 64% | 1008.8 hPa | - | - | - | - |
| 1787377943 | 30.56° C | 62% | 1009.1 hPa | - | - | - | - |
| 1787377043 | 30.56° C | 61% | 1009.3 hPa | - | - | - | - |
| 1787376142 | 30.56° C | 59% | 1009.5 hPa | - | - | - | - |
| 1787375240 | 30° C | 57% | 1009.9 hPa | - | - | - | - |
| 1787374340 | 30.56° C | 63% | 1010.2 hPa | - | - | - | - |
| 1787373440 | 30° C | 63% | 1010.6 hPa | - | - | - | - |
| 1787372540 | 30° C | 63% | 1010.9 hPa | - | - | - | - |
| 1787371639 | 30° C | 63% | 1011.2 hPa | - | - | - | - |
| 1787370739 | 30° C | 66% | 1011.3 hPa | - | - | - | - |
| 1787369839 | 30° C | 66% | 1011.4 hPa | - | - | - | - |
| 1787368939 | 29.44° C | 68% | 1011.6 hPa | - | - | - | - |
| 1787367142 | 29.44° C | 69% | 1011.9 hPa | - | - | - | - |
| 1787366242 | 29.44° C | 71% | 1012.3 hPa | - | - | - | - |
| 1787365342 | 28.89° C | 70% | 1012.4 hPa | - | - | - | - |
| 1787364441 | 28.89° C | 70% | 1012.5 hPa | - | - | - | - |
| 1787363541 | 28.89° C | 73% | 1012.7 hPa | - | - | - | - |
| 1787362641 | 28.33° C | 75% | 1012.8 hPa | - | - | - | - |
| 1787361741 | 28.33° C | 78% | 1012.7 hPa | - | - | - | - |
| 1787360841 | 28.33° C | 83% | 1012.7 hPa | - | - | - | - |
| 1787359941 | 28.33° C | 80% | 1012.8 hPa | - | - | - | - |
* Rain since midnight (hover to see other rain measurements)
** Current wind speed in m/s (hover to see current wind gust speed)